Location: *
(2.5500°S, 65.9667°W)
Time: 06:16:35
(UTC+00:00)

Tiros 1 despin weight - Pass Details

Date: 15 April 2024
Orbit: 578 x 621 km, 48.2° (Epoch: 25 May)

Event Time Altitude Azimuth Distance (km) Brightness Sun altitude
Rises 03:10:14 0° 345° (NNW) 2,872 - -70.3°
Reaches altitude 10° 03:12:58 10° 0° (N) 1,965 - -70.9°
Maximum altitude 03:16:27 22° 51° (NE) 1,354 - -71.7°
Drops below altitude 10° 03:19:54 10° 101° (ESE) 1,955 - -72.5°
Sets 03:22:37 0° 117° (ESE) 2,852 - -73.1°
